Campo, CA

12:24 AM PST on December 06, 2019 (GMT -0800)
Campo

Weather History for KCZZ - June, 2019

Change the Weather History Date:

Monday, June 10, 2019

  Actual Average Record
Temperature  
Mean Temperature 75 °F 65 °F  
Max Temperature 99 °F 86 °F 99 °F (2019)
Min Temperature 51 °F 44 °F 31 °F (1954)
Degree Days  
Heating Degree Days 0 2  
Month to date heating degree days 17 29  
Since 1 June heating degree days 17 29  
Since 1 July heating degree days 3032 2956  
Cooling Degree Days 10 2  
Month to date cooling degree days 28 20  
Year to date cooling degree days 30 50  
Since 1 June cooling degree days 28 20  
Growing Degree Days 26 (Base 50)    
Moisture  
Dew Point 38 °F    
Average Humidity 30    
Maximum Humidity 50    
Minimum Humidity 10    
Precipitation  
Precipitation 0.00 in 0.01 in 0.28 in (1957)
Month to date precipitation 0.00 0.04  
Year to date precipitation 12.74 10.08  
Sea Level Pressure  
Sea Level Pressure 29.94 in    
Wind  
Wind Speed 8 mph (NE)    
Max Wind Speed 17 mph    
Max Gust Speed 23 mph    
T = Trace of Precipitation, MM = Missing Value Source: NWS Daily Summary

Daily Weather History Graph

Daily Weather History Graph

Search for Another Location

Airport or City:

Astronomy

Jun. 10, 2019 Rise Set
Actual Time 5:37 AM PDT 7:53 PM PDT
Civil Twilight 5:09 AM PDT 8:21 PM PDT
Nautical Twilight 4:34 AM PDT 8:56 PM PDT
Astronomical Twilight 3:56 AM PDT 9:34 PM PDT
Moon 1:14 PM PDT (6/10) 1:24 AM PDT (6/10)
Length of Visible Light 15h 12m
Length of Day
14h 15m
First Quarter, 56% of the Moon is Illuminated
Jun 10
First Quarter
Jun 17
Full
Jun 25
Last Quarter
Jul 2
New
Jul 9
First Quarter

Hourly Weather History & Observations

Time (PDT) Temp. Dew Point Humidity Pressure Visibility Wind Dir Wind Speed Gust Speed Precip Events Conditions
12:52 AM 55.0 °F 35.1 °F 47% 29.94 in - ENE 8.1 mph - N/A   Unknown
1:52 AM 55.0 °F 35.1 °F 47% 29.94 in - NE 8.1 mph - N/A   Unknown
2:52 AM 53.1 °F 35.1 °F 50% 29.93 in - NE 6.9 mph - N/A   Unknown
3:52 AM 55.0 °F 34.0 °F 45% 29.94 in - NE 6.9 mph - N/A   Unknown
4:52 AM 54.0 °F 33.1 °F 45% 29.94 in - NE 5.8 mph - N/A   Unknown
5:52 AM 55.0 °F 34.0 °F 45% 29.95 in - NNE 5.8 mph - N/A   Unknown
6:52 AM 62.1 °F 37.9 °F 41% 29.96 in - NE 3.5 mph - N/A   Unknown
7:52 AM 79.0 °F 42.1 °F 27% 29.95 in - NE 4.6 mph - N/A   Unknown
8:52 AM 89.1 °F 34.0 °F 14% 29.96 in - ENE 12.7 mph - N/A   Unknown
9:52 AM 91.9 °F 30.9 °F 11% 29.96 in - East 9.2 mph - N/A   Unknown
10:52 AM 93.0 °F 30.0 °F 11% 29.97 in - NE 11.5 mph - N/A   Unknown
11:52 AM 93.9 °F 32.0 °F 11% 29.96 in - Variable 6.9 mph - N/A   Unknown
12:52 PM 96.1 °F 32.0 °F 10% 29.95 in - ENE 11.5 mph - N/A   Unknown
1:52 PM 97.0 °F 34.0 °F 11% 29.94 in - Variable 4.6 mph - N/A   Unknown
2:52 PM 98.1 °F 33.1 °F 10% 29.92 in - Variable 3.5 mph - N/A   Unknown
3:52 PM 96.1 °F 41.0 °F 15% 29.92 in - West 10.4 mph 21.9 mph N/A   Unknown
4:52 PM 93.0 °F 41.0 °F 16% 29.93 in - WSW 9.2 mph - N/A   Unknown
5:52 PM 93.9 °F 41.0 °F 16% 29.91 in - NW 10.4 mph - N/A   Unknown
6:52 PM 90.0 °F 44.1 °F 20% 29.92 in - WNW 6.9 mph - N/A   Unknown
7:52 PM 82.0 °F 46.9 °F 29% 29.92 in - NNE 3.5 mph - N/A   Unknown
8:52 PM 73.0 °F 48.0 °F 41% 29.94 in - NE 4.6 mph - N/A   Unknown
9:52 PM 68.0 °F 48.0 °F 49% 29.96 in - ENE 9.2 mph - N/A   Unknown
10:52 PM 66.0 °F 48.0 °F 52% 29.98 in - ENE 6.9 mph - N/A   Unknown
11:52 PM 64.0 °F 46.0 °F 52% 29.98 in - ENE 6.9 mph - N/A   Unknown